カタログに戻る

BREEZE-M DEB

TANK

運用中HEO
NORAD 28528·DEBRIS·🇷🇺 Russia

打ち上げ Feb 3, 2005 から Baikonur Cosmodrome

Loading…

次のパス (今後24時間)

TLE

最新Source: Space-Track

元期: Sep 13, 2026, 10:46 UTC

1 28528U 05003C   26256.44920871  .00002743  00000-0  40468-3 0  9990
2 28528  49.5669  45.2588 5007167 277.4353  30.6556  5.61815578417165

AllMySatでBREEZE-M DEBをリアルタイム追跡

Download on the App Store